Location: Burleson Fire Department Station 2
(32.5391°N, 97.3075°W)
Time: 00:08:51
(UTC+00:00)

NOAA 15 - Pass Details

Date: 17 December 2025
Orbit: 793 x 810 km, 98.5° (Epoch: 20 January)

Event Time Altitude Azimuth Distance (km) Brightness Sun altitude
Rises 00:53:40 0° 161° (SSE) 3,311 7.8 -18.0°
Reaches altitude 10° 00:56:00 10° 160° (SSE) 2,382 7.0 -18.5°
Maximum altitude 01:01:16 75° 76° (ENE) 837 4.5 -19.5°
Drops below altitude 10° 01:06:32 10° 351° (N) 2,388 7.0 -20.6°
Sets 01:08:52 0° 350° (N) 3,319 7.7 -21.1°
